Location: Barrio de Buenos Aires
(28.4500°N, 16.2667°W)
Time: 01:22:49
(UTC+00:00)

Cosmos 1535 Rocket - Pass Details

Date: 24 January 2020
Orbit: 949 x 1003 km, 83.0° (Epoch: 19 February)

Event Time Altitude Azimuth Distance (km) Brightness Sun altitude
Rises 20:21:40 0° 174° (S) 3,656 7.6 -22.8°
Reaches altitude 10° 20:24:11 10° 171° (S) 2,719 6.8 -23.3°
Maximum altitude 20:30:19 62° 92° (E) 1,102 4.4 -24.7°
Enters shadow 20:32:06 45° 36° (NE) 1,320 4.8 -25.0°
